[[{"header":{"parameterUnit":"m.s-1","parameterCategory":1,"la1":30.2991,"la2":30.254,"lo1":-89.0895,"lo2":-89.0444,"dy":0.0017,"dx":0.0017,"nx":28,"ny":28,"refTime":"2024-10-07T03:00:00:Z","depth":0,"parameterNumber":2,"parameterNumberName":"U-component_of_WINDS"},"data":[0,0,0,0,0,0,0,0,0,0,0,0,0,0,0,0,0,0,0,0,0,0,0,0,0,0,0,0,0,0,0,0,0,0,0,0,0,0,0,0,0,0,0,0,0,0,0,0,0,0,0,0,0,0,0,0,0,0,-3.1596,-3.1596,0,-3.1607,-3.1607,-3.1607,-3.1565,-3.1563,-3.1562,-3.1561,-3.1572,-3.1573,-3.1575,0,0,0,0,0,0,0,0,0,0,0,0,0,-3.1541,-3.1542,-3.1596,-3.1596,-3.1596,-3.1607,-3.1607,-3.1607,-3.1565,-3.1563,-3.1562,-3.156,-3.1571,-3.1573,-3.1575,0,0,0,0,0,0,0,0,0,0,0,0,0,-3.156,-3.1542,-3.1596,-3.1577,-3.1575,-3.1607,-3.1607,-3.1607,-3.1565,-3.1563,-3.1561,-3.156,-3.1571,-3.1573,-3.1575,-3.1626,0,0,-3.1582,-3.1583,0,0,0,0,0,0,0,0,-3.1559,-3.1562,-3.1579,-3.1578,-3.1576,-3.1582,-3.1591,-3.1614,-3.1566,-3.1569,-3.1561,-3.1559,-3.1577,-3.1578,-3.1585,-3.1627,-3.1627,-3.1582,-3.1583,-3.1584,-3.1585,0,0,0,0,0,0,0,-3.1557,-3.1561,-3.16,-3.158,-3.1578,-3.1568,-3.1568,-3.1595,-3.1583,-3.1568,-3.1565,-3.1567,-3.1576,-3.1583,-3.1585,-3.1627,-3.1582,-3.1584,-3.1585,-3.1586,-3.1716,-3.1718,0,0,0,0,0,0,-3.1558,-3.156,-3.16,-3.1601,-3.1563,-3.157,-3.1571,-3.1582,-3.1583,-3.1581,-3.1569,-3.1565,-3.158,-3.1582,-3.1585,-3.1648,-3.1584,-3.1586,-3.1587,-3.1714,-3.1717,-3.1719,0,0,0,0,0,0,-3.1557,-3.1562,-3.16,-3.158,-3.1584,-3.1573,-3.1586,-3.1584,-3.159,-3.1583,-3.1581,-3.1578,-3.1578,-3.1582,-3.1617,-3.1648,-3.1587,-3.1589,-3.1712,-3.1715,-3.1718,-3.1773,0,0,0,0,0,0,-3.1556,-3.1562,-3.1581,-3.158,-3.1585,-3.1631,-3.1588,-3.1585,-3.1594,-3.159,-3.1591,-3.159,-3.1577,-3.1614,-3.1619,-3.1649,-3.1591,-3.1709,-3.1713,-3.1717,-3.1768,-3.1777,-3.1785,0,0,0,0,0,-3.1554,-3.1595,-3.1582,-3.1587,-3.1608,-3.1633,-3.1636,-3.1621,-3.1597,-3.1616,-3.1612,-3.159,-3.1643,-3.1618,-3.1624,-3.1655,-3.1707,-3.1712,-3.1717,-3.1764,-3.1776,-3.1785,0,0,0,0,0,0,-3.1599,-3.1595,-3.158,-3.1622,-3.1629,-3.1626,-3.165,-3.1632,-3.1645,-3.1641,-3.1621,-3.1622,-3.1662,-3.1661,-3.1634,-3.1706,-3.1671,-3.1677,-3.1705,-3.1716,-3.1724,-3.1725,-3.1593,0,0,0,0,0,-3.1614,-3.1634,-3.1629,-3.1667,-3.1671,-3.166,-3.167,-3.1658,-3.1664,-3.1666,-3.1665,-3.1671,-3.169,-3.1703,-3.1719,-3.1767,-3.1769,-3.1792,-3.18,-3.1807,-3.1814,-3.1843,-3.1854,-3.1735,-3.1735,-3.1735,0,0,-3.1644,-3.1644,-3.1658,-3.1676,-3.1679,-3.1703,-3.1663,-3.1687,-3.1705,-3.167,-3.1705,-3.1704,-3.171,-3.1753,-3.1772,-3.1754,-3.1847,-3.1813,-3.1819,-3.1822,-3.1849,-3.186,-3.187,-3.1738,-3.1738,-3.1737,0,0,-3.1713,-3.1714,-3.1747,-3.1752,-3.1758,-3.1751,-3.1759,-3.176,-3.1758,-3.1793,-3.1768,-3.1788,-3.182,-3.1827,-3.1834,-3.1908,-3.1889,-3.1914,-3.1959,-3.1988,-3.1997,-3.2006,-3.2035,-3.2046,-3.1919,-3.192,-3.192,0,-3.175,-3.1783,-3.1766,-3.1794,-3.1803,-3.1774,-3.1809,-3.1814,-3.1825,-3.1833,-3.1813,-3.1854,-3.1856,-3.1902,-3.1921,-3.1926,-3.1937,-3.1914,-3.1997,-3.2005,-3.2013,-3.2041,-3.2052,-3.1923,-3.1922,-3.1922,-3.1922,0,-3.1831,-3.1854,-3.188,-3.1894,-3.1906,-3.1937,-3.1925,-3.194,-3.1927,-3.1923,-3.196,-3.1961,-3.1979,-3.1989,-3.1976,-3.2034,-3.2024,-3.2,-3.1965,-3.2028,-3.2054,-3.2064,-3.1927,-3.1926,-3.1925,-3.1925,0,0,-3.1927,-3.1932,-3.1942,-3.195,-3.1955,-3.1974,-3.2004,-3.2022,-3.2037,-3.2046,-3.2073,-3.2101,-3.2081,-3.209,-3.2078,-3.2102,-3.2165,-3.2077,-3.2077,-3.2096,-3.2234,-3.2253,-3.2266,-3.2152,-3.2154,-3.2155,-3.2234,0,-3.1997,-3.205,-3.2036,-3.2089,-3.2113,-3.2086,-3.2113,-3.212,-3.2118,-3.2138,-3.2134,-3.2156,-3.2126,-3.2132,-3.2155,-3.2153,-3.2193,-3.2146,-3.2179,-3.218,-3.2181,-3.2279,-3.2299,-3.2373,-3.2244,-3.2246,-3.2247,0,-3.2085,-3.2099,-3.2155,-3.2161,-3.217,-3.2194,-3.2212,-3.223,-3.2239,-3.2235,-3.2247,-3.223,-3.2262,-3.2225,-3.2271,-3.2239,-3.2252,-3.2253,-3.2255,-3.226,-3.2219,-3.2289,-3.2396,-3.2408,-3.2262,-3.2261,-3.226,0,-3.2154,-3.2187,-3.2226,-3.2232,-3.2238,-3.2257,-3.226,-3.2267,-3.228,-3.2295,-3.2304,-3.2322,-3.2332,-3.2347,-3.2337,-3.2311,-3.2386,-3.2347,-3.2386,-3.2386,-3.2404,-3.2404,-3.2518,-3.2408,-3.2407,-3.2407,-3.2407,0,-3.2235,-3.2271,-3.2257,-3.2281,-3.2322,-3.2306,-3.2347,-3.2347,-3.2354,-3.2379,-3.2356,-3.238,-3.2363,-3.2386,-3.2378,-3.2419,-3.2423,-3.2423,-3.2421,-3.2426,-3.2427,-3.2436,-3.2432,-3.241,-3.2409,-3.2409,-3.2408,0,-3.2319,-3.2311,-3.2352,-3.2356,-3.2357,-3.2388,-3.2391,-3.2414,-3.241,-3.2442,-3.2448,-3.2442,-3.2468,-3.2459,-3.2486,-3.2481,-3.2534,-3.2524,-3.2532,-3.253,-3.2571,-3.2569,-3.2697,-3.2715,-3.259,-3.2592,-3.2593,0,-3.2373,-3.24,-3.2407,-3.2423,-3.2428,-3.2452,-3.2466,-3.2452,-3.2468,-3.2481,-3.2504,-3.2528,-3.2547,-3.259,-3.2589,-3.261,-3.2602,-3.2646,-3.2605,-3.2612,-3.2607,-3.2607,-3.2611,-3.2655,-3.2656,-3.2657,-3.2658,0,-3.247,-3.2465,-3.2486,-3.2506,-3.2524,-3.2539,-3.2552,-3.2565,-3.2553,-3.2571,-3.2598,-3.2613,-3.2643,-3.2668,-3.2688,-3.2692,-3.2675,-3.2671,-3.2682,-3.2689,-3.2694,-3.2696,-3.2557,-3.2668,-3.2667,-3.2667,-3.2666,-3.2666,-3.2542,-3.2567,-3.2577,-3.2602,-3.261,-3.2624,-3.2647,-3.2647,-3.2669,-3.2692,-3.2682,-3.2715,-3.2725,-3.275,-3.2758,-3.2783,-3.2767,-3.2781,-3.2786,-3.279,-3.2797,-3.2688,-3.2786,-3.2786,-3.2786,-3.2786,-3.2785,0,-3.2641,-3.2647,-3.2669,-3.269,-3.271,-3.2691,-3.2705,-3.2723,-3.2752,-3.2763,-3.2783,-3.2816,-3.2841,-3.2842,-3.2866,-3.2887,-3.288,-3.2894,-3.2894,-3.2896,-3.2809,-3.2799,-3.29,-3.29,-3.29,-3.29,-3.29,-3.29,-3.2695,-3.2737,-3.2734,-3.2781,-3.2786,-3.2818,-3.2828,-3.2841,-3.2851,-3.2889,-3.291,-3.2911,-3.2919,-3.2944,-3.2967,-3.2966,-3.2978,-3.2996,-3.2993,-3.2913,-3.2901,-3.2891,-3.2881,-3.2998,-3.2998,-3.3078,-3.3079,-3.308]},{"header":{"parameterUnit":"m.s-1","parameterCategory":1,"la1":30.2991,"la2":30.254,"lo1":-89.0895,"lo2":-89.0444,"dy":0.0017,"dx":0.0017,"nx":28,"ny":28,"refTime":"2024-10-07T03:00:00:Z","depth":0,"parameterNumber":3,"parameterNumberName":"V-component_of_WINDS"},"data":[0,0,0,0,0,0,0,0,0,0,0,0,0,0,0,0,0,0,0,0,0,0,0,0,0,0,0,0,0,0,0,0,0,0,0,0,0,0,0,0,0,0,0,0,0,0,0,0,0,0,0,0,0,0,0,0,0,0,-2.0195,-2.0195,0,-2.0257,-2.0258,-2.0259,-2.0368,-2.037,-2.0372,-2.0374,-2.0438,-2.0437,-2.0437,0,0,0,0,0,0,0,0,0,0,0,0,0,-2.0172,-2.0172,-2.0194,-2.0195,-2.0196,-2.0257,-2.0258,-2.0259,-2.0368,-2.037,-2.0373,-2.0375,-2.0438,-2.0437,-2.0437,0,0,0,0,0,0,0,0,0,0,0,0,0,-2.0203,-2.0172,-2.0194,-2.0258,-2.0264,-2.0257,-2.0258,-2.0259,-2.0367,-2.037,-2.0373,-2.0376,-2.0438,-2.0437,-2.0437,-2.0373,0,0,-2.0436,-2.0436,0,0,0,0,0,0,0,0,-2.0201,-2.0204,-2.0248,-2.0253,-2.026,-2.0308,-2.0273,-2.0297,-2.0366,-2.0328,-2.0374,-2.0378,-2.0392,-2.0395,-2.04,-2.0376,-2.0378,-2.0436,-2.0436,-2.0435,-2.0435,0,0,0,0,0,0,0,-2.0199,-2.0202,-2.0219,-2.0248,-2.0256,-2.0284,-2.0292,-2.0278,-2.0342,-2.0332,-2.034,-2.0346,-2.0396,-2.04,-2.0403,-2.0379,-2.0436,-2.0436,-2.0435,-2.0435,-2.0311,-2.0308,0,0,0,0,0,0,-2.0187,-2.0199,-2.0217,-2.0221,-2.0238,-2.0282,-2.0291,-2.029,-2.0342,-2.0353,-2.0343,-2.035,-2.04,-2.0403,-2.0405,-2.0337,-2.0435,-2.0435,-2.0435,-2.0314,-2.031,-2.0307,0,0,0,0,0,0,-2.0186,-2.0188,-2.0215,-2.0212,-2.0218,-2.0279,-2.0277,-2.0289,-2.0294,-2.0351,-2.0363,-2.0336,-2.0402,-2.0406,-2.0381,-2.0341,-2.0435,-2.0435,-2.0318,-2.0313,-2.0308,-2.0198,0,0,0,0,0,0,-2.0185,-2.0187,-2.0162,-2.0211,-2.0218,-2.0188,-2.0274,-2.0288,-2.0293,-2.0303,-2.0347,-2.0357,-2.0405,-2.0381,-2.0381,-2.0342,-2.0434,-2.0321,-2.0315,-2.031,-2.0205,-2.019,-2.0177,0,0,0,0,0,-2.0184,-2.0127,-2.016,-2.0162,-2.0188,-2.0186,-2.019,-2.0246,-2.0289,-2.0266,-2.0303,-2.0356,-2.0345,-2.0378,-2.0378,-2.0339,-2.0324,-2.0317,-2.031,-2.0212,-2.0193,-2.0177,0,0,0,0,0,0,-2.007,-2.0134,-2.0172,-2.0129,-2.0151,-2.0204,-2.0176,-2.0223,-2.0233,-2.0242,-2.0312,-2.0321,-2.0288,-2.0311,-2.0346,-2.0282,-2.0343,-2.0336,-2.0268,-2.0251,-2.0237,-2.0232,-2.0434,0,0,0,0,0,-2.004,-2.0032,-2.0089,-2.0046,-2.0055,-2.0113,-2.0114,-2.0156,-2.0182,-2.0192,-2.0227,-2.0251,-2.0254,-2.0253,-2.0258,-2.0209,-2.0223,-2.0183,-2.0169,-2.0157,-2.015,-2.0131,-2.0115,-2.0284,-2.0284,-2.0284,0,0,-1.9977,-2.0012,-2.0002,-2.0024,-2.0046,-2.0039,-2.012,-2.0107,-2.0103,-2.019,-2.017,-2.0197,-2.0228,-2.0192,-2.0178,-2.021,-2.0106,-2.0148,-2.0138,-2.0138,-2.0122,-2.0106,-2.0091,-2.0279,-2.028,-2.0281,0,0,-1.986,-1.9884,-1.9853,-1.9874,-1.9908,-1.9948,-1.994,-1.9987,-2.0009,-1.999,-2.0057,-2.0053,-2.0054,-2.0075,-2.0086,-1.9982,-2.0032,-1.9981,-1.9907,-1.9887,-1.9874,-1.9862,-1.9829,-1.9815,-1.9974,-1.9974,-1.9974,0,-1.9778,-1.9768,-1.983,-1.9815,-1.9824,-1.9904,-1.9874,-1.9892,-1.9925,-1.993,-1.9966,-1.9973,-1.9999,-1.9972,-1.9947,-1.9951,-1.9948,-1.9977,-1.9871,-1.986,-1.985,-1.9819,-1.9805,-1.9968,-1.9969,-1.9969,-1.997,0,-1.9668,-1.9661,-1.9631,-1.9664,-1.9669,-1.9646,-1.9706,-1.9705,-1.9747,-1.9784,-1.9766,-1.9801,-1.9817,-1.9813,-1.9853,-1.9793,-1.9812,-1.9858,-1.9921,-1.9827,-1.9799,-1.9787,-1.9959,-1.9961,-1.9963,-1.9965,0,0,-1.9478,-1.9548,-1.9536,-1.9554,-1.9599,-1.9595,-1.9577,-1.9594,-1.9593,-1.9614,-1.9603,-1.9605,-1.9649,-1.9662,-1.9705,-1.9687,-1.9608,-1.9737,-1.9739,-1.9714,-1.9548,-1.9514,-1.9499,-1.9641,-1.9639,-1.9638,-1.9546,0,-1.9372,-1.9346,-1.9403,-1.9364,-1.936,-1.9438,-1.9424,-1.945,-1.9485,-1.9488,-1.9527,-1.9529,-1.9585,-1.9594,-1.958,-1.962,-1.9576,-1.9627,-1.9634,-1.9633,-1.9625,-1.9484,-1.9448,-1.936,-1.9535,-1.9534,-1.9532,0,-1.9244,-1.9261,-1.9222,-1.9274,-1.9274,-1.926,-1.9282,-1.9283,-1.9317,-1.9344,-1.9359,-1.9412,-1.9401,-1.9461,-1.9449,-1.9483,-1.9489,-1.951,-1.9508,-1.9512,-1.9578,-1.9486,-1.9333,-1.932,-1.9515,-1.9516,-1.9517,0,-1.9114,-1.9127,-1.9106,-1.9118,-1.9177,-1.9166,-1.919,-1.9227,-1.9235,-1.9254,-1.9261,-1.9278,-1.9288,-1.9302,-1.9359,-1.9397,-1.9341,-1.9405,-1.9365,-1.9364,-1.935,-1.935,-1.9197,-1.935,-1.9351,-1.9351,-1.9351,0,-1.899,-1.8964,-1.9049,-1.9036,-1.901,-1.9077,-1.905,-1.9082,-1.9115,-1.9112,-1.918,-1.9175,-1.925,-1.9254,-1.9298,-1.9284,-1.9287,-1.931,-1.9323,-1.9305,-1.9303,-1.9311,-1.932,-1.9348,-1.9348,-1.9349,-1.935,0,-1.884,-1.8895,-1.8879,-1.8937,-1.8952,-1.893,-1.8981,-1.8973,-1.9013,-1.9009,-1.9011,-1.9075,-1.9084,-1.9143,-1.9164,-1.9195,-1.9165,-1.9188,-1.9153,-1.9162,-1.912,-1.9124,-1.8969,-1.8954,-1.9113,-1.9112,-1.911,0,-1.8758,-1.874,-1.8798,-1.8801,-1.8822,-1.8826,-1.8835,-1.8902,-1.8909,-1.8949,-1.8937,-1.8952,-1.8968,-1.898,-1.9028,-1.9047,-1.9073,-1.9017,-1.9076,-1.9061,-1.9076,-1.9077,-1.9078,-1.9005,-1.9003,-1.9001,-1.9,0,-1.8609,-1.8638,-1.8649,-1.867,-1.868,-1.87,-1.8724,-1.8723,-1.8797,-1.8802,-1.8814,-1.8826,-1.8851,-1.8866,-1.8894,-1.8921,-1.8973,-1.8981,-1.8974,-1.8956,-1.8938,-1.8951,-1.9122,-1.8984,-1.8986,-1.8987,-1.8988,-1.8988,-1.8492,-1.8482,-1.8522,-1.8533,-1.8559,-1.8581,-1.8578,-1.8619,-1.863,-1.8655,-1.8694,-1.8701,-1.874,-1.8783,-1.8806,-1.8814,-1.8844,-1.8831,-1.8829,-1.8825,-1.8818,-1.8936,-1.8818,-1.8819,-1.8819,-1.882,-1.882,0,-1.8349,-1.838,-1.8389,-1.8422,-1.8432,-1.8481,-1.8512,-1.8517,-1.8522,-1.8554,-1.8569,-1.8585,-1.8601,-1.8653,-1.8675,-1.8672,-1.8697,-1.8676,-1.8678,-1.8684,-1.8788,-1.8794,-1.8655,-1.8655,-1.8655,-1.8655,-1.8655,-1.8655,-1.8276,-1.8262,-1.8297,-1.8298,-1.8329,-1.8337,-1.835,-1.8372,-1.8399,-1.8413,-1.8427,-1.8461,-1.8502,-1.8529,-1.8548,-1.8563,-1.8569,-1.854,-1.8563,-1.866,-1.8676,-1.8691,-1.8697,-1.854,-1.854,-1.8459,-1.8459,-1.8458]}]]